EA3GYL La Torregassa ES current weather conditions

sailwx.info

Wind from 186 at 4 knots gusting 7

Air temperature 16.1° C
Dewpoint 10.4° C

Last reported at 2015-Mar-03 13:50 UTC.
Time now 2015-Mar-03 15:03 UTC

Location: N 41°17' E 001°31'.
View on Google Maps.

See reports from other nearby stations

  
Tides and Currents Weather Stations Pressure Air Temp Water Temp Dewpoint Dewpoint Depression Visibility Wind Speed Wind Dir Waves Ship Positions
date/time (UTC)wind fromknots sea level pressurealtimeterstation pressurevisibilityair tempwater tempwave heightnotes
2015-Mar-03 13:50 186 4 gusting 7 16.1
2015-Mar-03 13:40 165 4 gusting 9 16.7
2015-Mar-03 13:30 165 4 gusting 8 16.7
2015-Mar-03 13:20 158 3 gusting 9 16.7
2015-Mar-03 13:10 164 4 gusting 9 16.1
2015-Mar-03 13:00 177 4 gusting 8 16.1
2015-Mar-03 12:50 174 4 gusting 6 16.1
2015-Mar-03 12:40 154 4 gusting 9 16.7
2015-Mar-03 12:30 166 3 gusting 7 16.7
2015-Mar-03 12:20 154 3 gusting 6 16.7
2015-Mar-03 12:10 167 2 gusting 7 16.7
2015-Mar-03 12:00 158 3 gusting 6 16.7
2015-Mar-03 11:50 132 3 gusting 6 16.7
2015-Mar-03 11:40 153 2 gusting 8 16.7
2015-Mar-03 11:30 155 2 gusting 6 16.7
2015-Mar-03 11:20 135 2 gusting 6 16.7
2015-Mar-03 11:10 162 1 gusting 5 16.7
2015-Mar-03 11:00 172 1 gusting 5 16.1
2015-Mar-03 10:50 154 2 gusting 6 16.1
2015-Mar-03 10:40 167 1 gusting 6 16.1
2015-Mar-03 10:30 130 2 gusting 5 15.6
2015-Mar-03 10:20 166 2 gusting 6 15.6
2015-Mar-03 10:10 189 2 gusting 5 15.6
2015-Mar-03 10:00 196 1 gusting 5 15.6
2015-Mar-03 09:50 145 1 gusting 6 15.6
2015-Mar-03 09:40 118 1 gusting 4 15.0
2015-Mar-03 09:30 145 1 gusting 5 15.0
2015-Mar-03 09:20 155 1 gusting 6 15.0
2015-Mar-03 09:10 168 1 gusting 5 15.0
2015-Mar-03 09:00 214 0 gusting 6 15.0
2015-Mar-03 08:50 184 0 gusting 3 15.0
2015-Mar-03 08:40 218 0 gusting 2 14.4
2015-Mar-03 08:30 232 1 gusting 4 13.9
2015-Mar-03 08:20 227 0 gusting 4 13.9
2015-Mar-03 08:10 242 0 gusting 3 13.9
2015-Mar-03 08:00 229 0 gusting 3 13.3
2015-Mar-03 07:50 13.3
2015-Mar-03 07:40 12.8
2015-Mar-03 07:30 12.2
2015-Mar-03 07:20 12.2
2015-Mar-03 07:10 278 0 gusting 1 11.7
2015-Mar-03 07:00 279 11.7
2015-Mar-03 06:50 279 0 gusting 1 11.7
2015-Mar-03 06:40 286 0 gusting 1 11.7
2015-Mar-03 06:30 286 0 gusting 2 11.7
2015-Mar-03 06:20 285 1 gusting 2 11.7
2015-Mar-03 06:10 281 0 gusting 1 11.7
2015-Mar-03 06:00 11.7
2015-Mar-03 05:50 11.7
2015-Mar-03 05:40 11.7
2015-Mar-03 05:30 281 0 gusting 1 11.1
2015-Mar-03 05:20 280 0 gusting 1 11.7
2015-Mar-03 05:10 290 0 gusting 2 11.7
2015-Mar-03 05:00 285 0 gusting 1 11.7
2015-Mar-03 04:50 11.1
2015-Mar-03 04:40 11.1
2015-Mar-03 04:30 11.1
2015-Mar-03 04:20 11.1
2015-Mar-03 04:10 11.1
2015-Mar-03 04:00 11.1
2015-Mar-03 03:50 11.7
2015-Mar-03 03:40 11.7
2015-Mar-03 03:30 11.7
2015-Mar-03 03:10 11.7
2015-Mar-03 02:50 12.2
2015-Mar-03 02:40 12.2
2015-Mar-03 02:30 12.2
2015-Mar-03 02:20 12.2
2015-Mar-03 02:10 12.2
2015-Mar-03 01:40 12.2
2015-Mar-03 01:30 12.2
2015-Mar-03 01:20 12.8
2015-Mar-03 01:10 125 0 gusting 2 13.3
2015-Mar-03 01:00 108 0 gusting 4 13.3
2015-Mar-03 00:50 101 1 gusting 2 13.3
2015-Mar-03 00:40 115 1 gusting 4 13.3
2015-Mar-03 00:30 108 1 gusting 4 13.3
2015-Mar-03 00:20 075 0 gusting 6 13.3
2015-Mar-02 23:40 119 0 gusting 0 14.4
2015-Mar-02 23:30 090 1 gusting 2 14.4
2015-Mar-02 23:20 056 1 gusting 5 15.0
2015-Mar-02 23:10 058 1 gusting 3 15.0
2015-Mar-02 23:00 061 1 gusting 3 15.0
2015-Mar-02 22:50 066 2 gusting 5 15.6
2015-Mar-02 22:40 062 3 gusting 6 15.6
2015-Mar-02 22:30 065 2 gusting 6 15.6
2015-Mar-02 22:20 074 2 gusting 6 15.6
2015-Mar-02 22:10 064 4 gusting 7 16.1
2015-Mar-02 22:00 052 3 gusting 8 16.1
2015-Mar-02 21:50 054 4 gusting 7 16.1
2015-Mar-02 21:40 054 3 gusting 9 16.7
2015-Mar-02 21:30 051 2 gusting 8 17.2
2015-Mar-02 21:20 087 3 gusting 6 17.8
2015-Mar-02 21:10 137 4 gusting 8 18.3
2015-Mar-02 21:00 282 5 gusting 14 19.4
2015-Mar-02 20:50 276 4 gusting 14 20.0
2015-Mar-02 20:40 293 6 gusting 14 20.0
2015-Mar-02 20:30 295 8 gusting 19 20.0
2015-Mar-02 20:20 293 9 gusting 17 20.0
2015-Mar-02 20:10 290 11 gusting 17 20.0
2015-Mar-02 20:00 288 10 gusting 18 20.0
2015-Mar-02 19:50 288 9 gusting 18 20.0
2015-Mar-02 19:40 285 7 gusting 15 20.0
2015-Mar-02 19:30 282 6 gusting 17 20.0
2015-Mar-02 19:20 275 5 gusting 12 20.0
2015-Mar-02 19:10 282 5 gusting 13 20.0
2015-Mar-02 19:00 268 3 gusting 11 20.0
2015-Mar-02 18:50 273 1 gusting 7 20.0
2015-Mar-02 18:40 259 2 gusting 4 20.0
2015-Mar-02 18:30 277 6 gusting 10 20.6
2015-Mar-02 18:20 287 6 gusting 13 20.6
2015-Mar-02 18:10 288 6 gusting 11 20.6
2015-Mar-02 18:00 298 8 gusting 14 21.1
2015-Mar-02 17:50 294 7 gusting 15 21.1
2015-Mar-02 17:40 289 9 gusting 20 21.1
2015-Mar-02 17:30 296 7 gusting 19 21.7
2015-Mar-02 17:20 283 6 gusting 14 21.7
2015-Mar-02 17:10 281 6 gusting 16 21.7
2015-Mar-02 17:00 280 8 gusting 13 22.2
2015-Mar-02 16:50 284 9 gusting 18 22.2
2015-Mar-02 16:40 280 6 gusting 17 22.2
2015-Mar-02 16:30 283 6 gusting 17 22.8
2015-Mar-02 16:20 292 6 gusting 18 22.2
2015-Mar-02 16:10 276 6 gusting 11 22.2
2015-Mar-02 16:00 283 8 gusting 17 22.2
2015-Mar-02 15:50 285 6 gusting 15 22.2
2015-Mar-02 15:40 278 6 gusting 14 22.2
2015-Mar-02 15:30 284 6 gusting 13 22.2
2015-Mar-02 15:20 283 7 gusting 16 22.2
2015-Mar-02 15:10 270 6 gusting 15 22.8
2015-Mar-02 15:00 268 7 gusting 14 22.8
2015-Mar-02 14:50 280 6 gusting 18 22.8
2015-Mar-02 14:40 263 6 gusting 14 23.3
2015-Mar-02 14:30 272 6 gusting 13 22.8
2015-Mar-02 14:20 269 6 gusting 13 22.8
2015-Mar-02 14:10 267 6 gusting 17 22.8
2015-Mar-02 14:00 270 6 gusting 17 23.9
2015-Mar-02 13:50 278 7 gusting 16 23.3
2015-Mar-02 13:40 288 7 gusting 15 23.3
2015-Mar-02 13:30 275 7 gusting 15 23.3
2015-Mar-02 13:20 276 7 gusting 17 22.8
2015-Mar-02 13:10 271 6 gusting 19 23.3
2015-Mar-02 13:00 267 6 gusting 16 23.3
2015-Mar-02 12:50 277 8 gusting 16 22.8
2015-Mar-02 12:40 263 7 gusting 15 22.8
2015-Mar-02 12:30 282 7 gusting 16 22.2
2015-Mar-02 12:20 277 6 gusting 14 22.2
2015-Mar-02 12:10 276 6 gusting 13 22.2
2015-Mar-02 12:00 277 4 gusting 13 22.2
2015-Mar-02 11:50 270 6 gusting 12 21.7
2015-Mar-02 11:40 264 6 gusting 12 21.1
2015-Mar-02 11:30 279 6 gusting 15 20.0
2015-Mar-02 11:20 282 6 gusting 13 19.4
2015-Mar-02 11:10 283 6 gusting 14 19.4
2015-Mar-02 11:00 284 6 gusting 12 19.4
2015-Mar-02 10:50 282 7 gusting 15 19.4
2015-Mar-02 10:40 274 6 gusting 15 19.4
2015-Mar-02 10:30 279 6 gusting 17 18.9
2015-Mar-02 10:20 282 7 gusting 17 18.9
2015-Mar-02 10:10 282 9 gusting 15 18.3
2015-Mar-02 10:00 286 9 gusting 19 18.3
2015-Mar-02 09:50 287 9 gusting 18 18.3
2015-Mar-02 09:40 284 9 gusting 19 18.3
2015-Mar-02 09:30 285 9 gusting 19 18.3
2015-Mar-02 09:20 278 7 gusting 18 17.8
2015-Mar-02 09:10 278 6 gusting 18 17.8
2015-Mar-02 09:00 281 7 gusting 14 17.8
2015-Mar-02 08:50 278 6 gusting 17 17.8
2015-Mar-02 08:40 286 6 gusting 18 17.8
2015-Mar-02 08:30 285 6 gusting 13 17.8
2015-Mar-02 08:20 289 6 gusting 16 17.2
2015-Mar-02 08:10 285 5 gusting 13 17.2
2015-Mar-02 08:00 270 5 gusting 11 17.2
2015-Mar-02 07:50 266 4 gusting 11 17.2
2015-Mar-02 07:40 267 4 gusting 13 16.7
2015-Mar-02 07:30 280 5 gusting 10 16.7
2015-Mar-02 07:20 284 5 gusting 13 16.7
2015-Mar-02 07:10 283 4 gusting 11 16.7
2015-Mar-02 07:00 283 4 gusting 11 16.7
2015-Mar-02 06:50 284 2 gusting 12 16.7
2015-Mar-02 06:40 267 2 gusting 7 16.7
2015-Mar-02 06:30 255 1 gusting 6 16.7
2015-Mar-02 06:20 271 3 gusting 6 16.7
2015-Mar-02 06:10 269 3 gusting 10 17.2
2015-Mar-02 06:00 267 1 gusting 8 17.2
2015-Mar-02 05:50 286 1 gusting 6 17.2
2015-Mar-02 05:40 284 16.7
2015-Mar-02 05:30 16.7
2015-Mar-02 05:20 083 0 gusting 0 16.7
2015-Mar-02 05:10 282 2 gusting 7 17.2
2015-Mar-02 05:00 278 2 gusting 10 17.2
2015-Mar-02 04:50 285 1 gusting 6 17.2
2015-Mar-02 04:40 315 1 gusting 5 17.2
2015-Mar-02 04:30 293 0 gusting 5 17.2
2015-Mar-02 04:20 285 2 gusting 8 17.2
2015-Mar-02 04:10 280 2 gusting 12 17.2
2015-Mar-02 04:00 276 4 gusting 11 16.7
2015-Mar-02 03:50 281 6 gusting 13 16.7
2015-Mar-02 03:40 275 4 gusting 17 16.7
2015-Mar-02 03:30 250 2 gusting 11 16.1
2015-Mar-02 03:20 217 2 gusting 9 15.6
2015-Mar-02 03:10 212 1 gusting 4 15.6
2015-Mar-02 03:00 231 0 gusting 5 15.6
2015-Mar-02 02:50 226 1 gusting 3 15.6
2015-Mar-02 02:40 257 1 gusting 4 16.1
2015-Mar-02 02:30 255 1 gusting 3 15.6
2015-Mar-02 02:20 269 1 gusting 5 15.6
2015-Mar-02 02:10 256 2 gusting 4 15.6
2015-Mar-02 02:00 254 2 gusting 6 15.6
2015-Mar-02 01:50 266 3 gusting 6 15.6
2015-Mar-02 01:40 266 2 gusting 8 16.1
2015-Mar-02 01:30 263 2 gusting 6 16.1
2015-Mar-02 01:20 275 4 gusting 8 16.7
2015-Mar-02 01:10 285 5 gusting 9 17.2
2015-Mar-02 01:00 281 4 gusting 10 16.7
2015-Mar-02 00:50 281 3 gusting 8 16.1
2015-Mar-02 00:40 280 0 gusting 6 14.4
2015-Mar-02 00:30 12.8
2015-Mar-02 00:20 039 0 gusting 1 12.8
2015-Mar-02 00:10 039 0 gusting 2 12.8
2015-Mar-02 00:00 045 12.8
2015-Mar-01 23:50 035 0 gusting 1 12.8
2015-Mar-01 23:40 12.2
2015-Mar-01 23:30 12.2
2015-Mar-01 23:20 357 0 gusting 1 12.8
2015-Mar-01 23:10 030 0 gusting 1 12.2
2015-Mar-01 23:00 058 0 gusting 2 12.8
2015-Mar-01 22:50 047 0 gusting 3 12.8
2015-Mar-01 22:40 054 1 gusting 5 12.8
2015-Mar-01 22:30 047 12.8
2015-Mar-01 22:20 073 12.8
2015-Mar-01 22:10 062 0 gusting 1 12.8
2015-Mar-01 22:00 12.2
2015-Mar-01 21:50 12.8
2015-Mar-01 21:40 12.8
2015-Mar-01 21:30 13.3
2015-Mar-01 21:20 13.3
2015-Mar-01 21:10 231 13.9
2015-Mar-01 21:00 264 1 gusting 4 14.4
2015-Mar-01 20:50 284 1 gusting 5 14.4
2015-Mar-01 20:40 282 1 gusting 4 14.4
2015-Mar-01 20:30 291 1 gusting 3 14.4
2015-Mar-01 20:20 281 1 gusting 3 14.4
2015-Mar-01 20:10 287 0 gusting 2 14.4
2015-Mar-01 20:00 283 0 gusting 1 14.4
2015-Mar-01 19:50 284 1 gusting 1 14.4
2015-Mar-01 19:40 286 2 gusting 5 15.0
2015-Mar-01 19:30 292 1 gusting 4 15.0
2015-Mar-01 19:20 285 1 gusting 3 15.0
2015-Mar-01 19:10 277 0 gusting 5 15.0
2015-Mar-01 19:00 266 15.6
2015-Mar-01 18:50 290 15.6
2015-Mar-01 18:40 15.6
2015-Mar-01 18:30 110 0 gusting 2 15.6
2015-Mar-01 18:20 327 16.1
2015-Mar-01 18:10 16.1
2015-Mar-01 18:00 165 0 gusting 1 16.7
2015-Mar-01 17:50 174 2 gusting 5 17.2
2015-Mar-01 17:40 164 2 gusting 6 17.8
2015-Mar-01 17:20 258 2 gusting 3 20.0
2015-Mar-01 16:00 271 5 gusting 12 21.1
2015-Mar-01 15:50 285 5 gusting 9 21.1
2015-Mar-01 15:40 290 4 gusting 14 21.1
2015-Mar-01 15:30 280 4 gusting 8 21.1
2015-Mar-01 15:20 267 4 gusting 10 21.1
2015-Mar-01 15:10 281 6 gusting 13 21.1
2015-Mar-01 15:00 286 6 gusting 11 21.1